976  
FPUS83 KFGF 210431  
OPUFGF  
PRAIRIE TO PINES WEATHER ROUNDUP  
NATIONAL WEATHER SERVICE EASTERN NORTH DAKOTA/GRAND FORKS ND  
1000 PM CST THU FEB 20 2020  
 
**SATELLITE DATA USED TO AUGMENT SKY COVER AT AUTOMATED STATIONS**  
***** WEATHER ACROSS EASTERN NORTH DAKOTA *****  
 
CITY SKY/WX TMP DP RH WIND PRES REMARKS  
GRAND FORKS FAIR 11 5 77 S16 30.21F WCI -6  
GRND FORKS AFB FAIR 16 9 73 S10 30.19F WCI 3  
GRND FORKS NWS N/A 12 9 89 S12 30.17F WCI -2  
BUXTON NOT AVBL  
DEVILS LAKE FAIR 20 13 74 SW14 30.13F WCI 7  
FARGO FAIR 13 8 81 S13 30.32F WCI -2  
WAHPETON ARPT N/A 9 5 85 S7 30.36F WCI -3  

 
 
***** WEATHER ACROSS CENTRAL AND WESTERN NORTH DAKOTA *****  
 
CITY SKY/WX TMP DP RH WIND PRES REMARKS  
JAMESTOWN FAIR 14 9 80 S14 30.22F WCI -1  
BISMARCK FAIR 26 16 65 SW9 30.21F WCI 17  
MINOT FAIR 29 17 61 SW18G29 30.05F WCI 16  
MINOT AFB FAIR 28 17 61 SW10 30.04F WCI 19  
GARRISON N/A 22 15 75 SW6 30.13F WCI 14  
WILLISTON NOT AVBL  
DICKINSON FAIR 27 14 58 SW22 30.11F WCI 13  
HETTINGER FAIR 25 13 60 SW6 30.20F WCI 18  

 
 
***** OTHER OBSERVATIONS NORTHEAST NORTH DAKOTA *****  
 
CITY SKY/WX TMP DP RH WIND PRES REMARKS  
WALHALLA FAIR 25 14 63 S6G13 30.09F WCI 18  
LANGDON NOT AVBL  
CAVALIER FAIR 14 9 79 S10 30.12F WCI 1  
GRAFTON NOT AVBL  
CANDO FAIR 19 14 79 SW14 30.10F WCI 6  
FORT TOTTEN N/A 22 13 69 SW10 29.95S WCI 11  
ROLLA FAIR 21 16 79 SW17 30.03F WCI 7  
RUGBY FAIR 23 18 80 SW21 30.08 WCI 8  
***** THE ABOVE OBSERVATIONS ARE NON NWS ARE NOT QUALITY  
CONTROLLED AND MAY MIS-REPORT RAIN FOR SNOW...  

 
 
***** OTHER OBSERVATIONS SOUTHEAST NORTH DAKOTA *****  
 
CITY SKY/WX TMP DP RH WIND PRES REMARKS  
COOPERSTOWN FAIR 16 14 93 SW16 30.20F WCI 0  
VALLEY CITY NOT AVBL  
OAKES N/A 12 10 92 S14 30.31F WCI -3  
GWINNER CLEAR 18 16 93 SW22 30.30F WCI 0  
SHEYENNE NWR N/A 15 12 88 SW13 29.95S WCI 1  
BUFFALO NOT AVBL  
WYNDMERE NOT AVBL  
***** THE ABOVE OBSERVATIONS ARE NON NWS ARE NOT QUALITY  
CONTROLLED AND MAY MIS-REPORT RAIN FOR SNOW...  

 
 
***** WEATHER ACROSS NORTHERN MINNESOTA *****  
 
CITY SKY/WX TMP DP RH WIND PRES REMARKS  
FLAG ISLAND N/A 3 0 85 S10 30.13F WCI -12  
WARROAD FAIR 16 10 79 SW16 30.15F WCI 0  
ROSEAU FAIR 16 10 79 S20 30.15F WCI -1  
HALLOCK FAIR 10 7 85 S18 30.15F WCI -8  
THF RVR FALLS FAIR 13 8 81 SW23 30.23F WCI -6  
HALSTAD NOT AVBL  
FOSSTON FAIR 10 7 85 S17 30.27F WCI -7  
BAUDETTE FAIR 13 6 74 SW9 30.18F WCI 1  
WASKISH N/A 18 9 68 SW7 30.23F WCI 8  
CROOKSTON FAIR 12 9 85 S20 30.25F WCI -6  

 
***** WEATHER ACROSS CENTRAL AND WEST MINNESOTA *****  
 
CITY SKY/WX TMP DP RH WIND PRES REMARKS  
BEMIDJI FAIR 13 7 76 S8 30.27S WCI 1  
PARK RAPIDS FAIR 6 1 80 S8 30.32F WCI -7  
WADENA FAIR 9 7 92 SW7 30.36F WCI -3  
DETROIT LAKES FAIR 14 10 85 S8 30.33F WCI 3  
MOORHEAD FAIR 10 3 72 S15 30.33F WCI -6  
FERGUS FALLS FAIR 10 7 85 S12 30.39F WCI -4  
ELBOW LAKE FAIR 10 8 89 S13 30.39F WCI -5  
MORRIS MN NOT AVBL  
STAPLES FAIR 9 3 78 S7 30.37F WCI -3  
WHEATON N/A 16 10 79 S10G17 30.39F WCI 3  

 
***** WEATHER ELSEWHERE ACROSS MINNESOTA *****  
 
CITY SKY/WX TMP DP RH WIND PRES REMARKS  
DULUTH FAIR 8 -3 61 SW15 30.34F WCI -9  
INTRNTL FALLS FAIR 17 6 62 SW10G20 30.21F WCI 5  
ELY FAIR 12 1 62 SW12G17 30.26F WCI -2  
CLOQUET FAIR 9 -4 56 SW9 30.37F WCI -5  
BRAINERD FAIR 10 2 69 S9 30.40F WCI -3  
HIBBING FAIR 9 0 67 S6 30.31F WCI -1  
ALEXANDRIA FAIR 13 8 81 S13 30.40F WCI -2  
SAINT CLOUD FAIR 3 -3 76 SE6 30.47F WCI -8  
MINNEAPOLIS FAIR 11 2 67 SW5 30.54F WCI 3  

 
 
***** WEATHER ACROSS SOUTH DAKOTA *****  
 
CITY SKY/WX TMP DP RH WIND PRES REMARKS  
SIOUX FALLS FAIR 20 14 77 SW9 30.50F WCI 9  
BROOKINGS FAIR 15 12 88 S15 30.44F WCI 0  
WATERTOWN FAIR 14 10 84 S13 30.39F WCI 0  
HURON FAIR 21 15 78 S12 30.41F WCI 9  
SISSETON N/A 24 14 65 S18G25 30.35F WCI 10  
ABERDEEN FAIR 19 13 77 S18 30.35F WCI 4  
MITCHELL FAIR 26 18 71 S13 30.46F WCI 15  
PIERRE FAIR 29 16 58 SW6 30.33F WCI 23  
MOBRIDGE FAIR 17 11 77 SE10 30.25F WCI 5  
RAPID CITY FAIR 21 11 65 SE5 30.24F WCI 15  

 
 
***** SOME WEATHER IN NEARBY STATES *****  
 
CITY SKY/WX TMP DP RH WIND PRES REMARKS  
GLASGOW MT FAIR 32 18 56 S6 30.04F  
GREAT FALLS MT FAIR 35 5 28 SW22 30.13S WCI 23  
CHEYENNE WY FAIR 23 7 50 SW12 30.36F WCI 12  
SCOTTSBLUFF NE FAIR 19 12 74 E3 30.37F  
OMAHA NE FAIR 21 14 74 S8 30.66F WCI 11  
DES MOINES IA FAIR 16 4 59 S7 30.69S WCI 6  
DAVENPORT IA FAIR 12 6 77 SW5 30.72S HAZE WCI 4  
CHICAGO IL FAIR 15 1 53 W8 30.67S WCI 4  
EAU CLAIRE WI FAIR 6 -8 52 SW6 30.55F WCI -4  
LA CROSSE WI FAIR 7 -6 55 S9 30.64F WCI -7  

 
 
***** SOME NATIONAL WEATHER *****  
 
CITY SKY/WX TMP DP RH WIND PRES REMARKS  
LA GUARDIA NY FAIR 29 9 43 N17 30.45S WCI 17  
RALEIGH NC LGT SNOW 33 31 92 NE7 30.34S FOG  
ATLANTA GA CLOUDY 39 35 86 N9 30.34R  
NEW ORLEANS LA CLOUDY 49 41 74 N22G31 30.37S  
OKLAHOMA CITY FAIR 30 18 60 N9 30.72R WCI 22  
ALBUQUERQUE NM FAIR 33 21 61 E24 30.47R WCI 20  
SALT LAKE CITY FAIR 28 20 71 SW5 30.41S WCI 23  
LOS ANGELES CA FAIR 63 48 58 N5 30.02S  
BOISE ID FAIR 33 14 45 SE10 30.36S WCI 25  
SEATTLE WA FAIR 49 27 42 E8 30.22S  

 
 
*** WEATHER ACROSS MANITOBA...SASKATCHEWAN AND ONTARIO ***  
***ONTARIO***  
 
CITY SKY/WX TMP DP RH WIND PRES REMARKS  
GERALDTON CLEAR 16 1 53 SW15G23 30.01F WCI 1  
THUNDER BAY CLEAR 14 3 62 SW8 30.22F WCI 3  
SIOUX LOOKOUT CLEAR 16 7 67 SW9 30.05F WCI 4  
TORONTO CLEAR 12 5 73 SW3 30.52F  
BIG TROUT LK CLEAR 19 10 68 W9 29.59F WCI 9  
PICKLE LAKE CLEAR 18 7 62 SW20G31 29.86F WCI 1  
DRYDEN CLEAR N/A N/A N/A MISG N/A  
KENORA PTCLDY 9 3 78 S14 30.09F WCI -8  

 
*** MANITOBA***  
 
CITY SKY/WX TMP DP RH WIND PRES REMARKS  
BRANDON CLEAR 23 12 63 SW15G21 29.97F WCI 10  
DAUPHIN CLEAR 28 16 59 SW22G29 29.81F WCI 15  
ISLAND LAKE NOT AVBL  
PILOT MOUND N/A 19 14 79 SW16 N/A WCI 5  
THE PAS CLEAR 30 16 55 W14G24 29.64F WCI 20  
THOMPSON MOCLDY 19 14 79 SW8 29.48F WCI 9  
WINNIPEG CLEAR 18 10 73 S20G25 30.05 WCI 1  
LYNN LAKE PTCLDY 30 21 69 W14G21 29.46R WCI 20  
CHURCHILL CLEAR 18 14 86 W12 29.20F WCI 5  
GILLAM CLOUDY 19 12 73 SW13 29.42F WCI 7  

 
***SASKATCHEWAN***  
 
CITY SKY/WX TMP DP RH WIND PRES REMARKS  
ESTEVAN CLEAR 25 16 68 SW21G30 29.97F WCI 10  
KINDERSLEY PTCLDY 18 12 79 SW7 29.92R WCI 8  
LLOYDMINSTER CLEAR 21 10 63 W14 29.85S WCI 8  
PRINCE ALBERT MOCLDY 16 9 73 SW3 29.81  
REGINA CLEAR 25 16 68 SW16G23 29.89F WCI 12  
YORKTON PTCLDY 25 16 68 SW13G20 29.83R W  
 
CLICK HERE TO GO TO PREVIOUS BULLETINS.

The Nexlab ND Page
The Nexlab MN Page Main Text Page